Location: Czekan�w
(50.3488°N, 18.7344°E)
Time: 22:59:13
(UTC+00:00)

Cosmos 1805 Rocket - Pass Details

Date: 17 February 2020
Orbit: 606 x 629 km, 82.5° (Epoch: 05 April)

Event Time Altitude Azimuth Distance (km) Brightness Sun altitude
Rises 04:47:01 0° 345° (NNW) 2,882 6.8 -11.3°
Reaches altitude 10° 04:49:17 10° 340° (NNW) 1,971 5.9 -10.9°
Maximum altitude 04:53:29 50° 266° (W) 780 3.7 -10.2°
Drops below altitude 10° 04:57:40 10° 191° (S) 1,954 6.1 -9.6°
Sets 04:59:55 0° 186° (S) 2,854 7.0 -9.2°
